Tracking 27111 objects as of 29-Mar-2023
HD Live streaming from Space Station
objects crossing your sky now

STERNULA-1

Track STERNULA-1 now!
10-day predictions


NORAD ID: 55044
Int'l Code: 2023-001AM
Perigee: 522.2 km
Apogee: 537.4 km
Inclination: 97.5 °
Period: 95.1 minutes
Semi major axis: 6900 km
RCS: Unknown
Launch date: January 3, 2023
Source: Denmark (DEN)
Launch site: AIR FORCE EASTERN TEST RANGE (AFETR)
Your satellite tracking list
Your tracking list is empty




NASA's NSSDC Master Catalog

Two Line Element Set (TLE):
1 55044U 23001AM  23087.59377447  .00017900  00000-0  97433-3 0  9996
2 55044  97.4922 148.3737 0011001 296.4614 167.6912 15.14445540 12852
Source of the keplerian elements: AFSPC